Hourly Data Report for June 09, 2021

SANIRAJAK AIRPORT
NUNAVUT
Current Station Operator: NAVCAN

68°46'33.000" N
81°14'33.000" W
9.10 m
2402354
71293
YUX

Download Data

Hourly Data (June 2021)
Hourly Data Report for June 9, 2021
TIME
LST
Temp Definition
°C
Dew Point Definition
°C
Rel Hum Definition
%
Precip. Amount Definition
mm

Wind Dir Definition
10's deg

Wind Spd Definition
km/h
Visibility Definition
km
Stn Press Definition
kPa
Hmdx Definition


Wind Chill Definition


Weather Definition


00:00 -1.1 -1.8 95 0.0 31 32 16.1 101.34   -8 LegendNANA
01:00 -1.5 -2.3 95 0.0 32 30 16.1 101.36   -8 LegendNANA
02:00 -1.6 -2.4 94 0.0 32 32 16.1 101.37   -9 LegendNANA
03:00 -1.9 -2.6 95 0.0 32 30 16.1 101.38   -9 LegendNANA
04:00 -1.7 -2.5 94 0.0 31 28 16.1 101.41   -8 LegendNANA
05:00 -1.2 -2.2 93 0.0 32 32 16.1 101.43   -8 LegendNANA
06:00 -0.8 -1.8 93 0.0 31 28 16.1 101.43   -7 LegendNANA
07:00 0.1 -1.1 92 0.0 32 32 16.1 101.44     LegendNANA
08:00 0.5 -0.7 92 0.0 32 34 16.1 101.45     LegendNANA
09:00 0.7 -0.5 92 0.0 31 37 16.1 101.46     LegendNANA
10:00 1.0 -0.2 92 0.0 32 34 16.1 101.44     LegendNANA
11:00 1.4 0.1 91 0.0 32 28 16.1 101.45     LegendNANA
12:00 1.4 -0.1 90 0.0 32 26 16.1 101.43     LegendNANA
13:00 1.3 0.0 91 0.0 32 30 16.1 101.44     LegendNANA
14:00 1.3 -0.2 90 0.0 32 34 16.1 101.43     LegendNANA
15:00 1.3 0.0 91 0.0 32 30 16.1 101.44     LegendNANA
16:00 1.4 0.1 91 0.0 32 24 16.1 101.47     LegendNANA
17:00 1.4 0.1 91 0.0 31 30 16.1 101.47     LegendNANA
18:00 1.2 0.0 92 0.0 32 28 16.1 101.43     LegendNANA
19:00 1.0 0.0 93 0.0 32 35 16.1 101.43     LegendNANA
20:00 0.6 -0.3 94 0.0 31 32 16.1 101.44     LegendNANA
21:00 0.3 -0.4 95 0.0 32 30 16.1 101.42     LegendNANA
22:00 0.3 -0.4 95 0.0 33 43 16.1 101.39     LegendNANA
23:00 -0.5 -1.1 96 0.0 32 37 16.1 101.36   -8 LegendNANA

Notes on Data Quality.

Legend

  • E = Estimated
  • M = Missing
  • NA = Not Available*
  • [empty] = Indicates an unobserved value
Date modified: